Other Surface Observations
Issued by NWS Tucson, AZ

Home | Current Version | Previous Version | Text Only | Print | Product List | Glossary On
Versions: 1 2 3 4 5 6 7 8 9 10 11 12 13 14 15 16 17 18 19 20 21 22 23 24 25 26 27 28 29 30 31 32 33 34 35 36 37 38 39 40 41 42 43 44 45 46 47 48 49 50
000
SXUS55 KTWC 270415
OSOTWC

WEATHER ROUNDUP FOR SOUTHEAST ARIZONA
NATIONAL WEATHER SERVICE TUCSON AZ
915 PM MST SUN APR 26 2015

AZZ504>506-514-270515-
LOCATION       SKY/WX    TMP DP  RH WIND       PRES   REMARKS
TUCSON         PTCLDY    64  34  32 N7        29.89R
DAVIS-MONTHAN  CLEAR     61  36  38 NW7       29.87R
CHILDRENS PARK N/A       66  32  28 NW4               PIMA CO DEQ
ALVERNON/22ND  N/A      N/A N/A N/A N/A               PIMA CO DEQ
CHERRY/GLENN   N/A      N/A N/A N/A N/A               PIMA CO DEQ
TANGERINE      N/A       64 N/A N/A N7                PIMA CO DEQ
CONTL RANCH    N/A       66  37  34 NW6               PIMA CO DEQ
GRANT/1ST      N/A       66  31  27 NW4               PIMA CO DEQ
CRAYCROFT/22ND N/A      N/A N/A N/A N/A               PIMA CO DEQ
GOLFLINKS/KOLB N/A      N/A N/A N/A N/A               PIMA CO DEQ
AJO/12TH       N/A       66  30  26 W4                PIMA CO DEQ
SAGUARO EAST   N/A      N/A N/A N/A N/A               PIMA CO DEQ
FAIRGROUNDS    N/A       62 N/A N/A NW8               PIMA CO DEQ
SAGUARO        N/A       62  29  28 NW5G10            *SABINO CYN
SAN CARLOS     N/A       54  47  78 W3G10             *SAN CARLOS
GREEN VALLEY   N/A       65  23  20 NW6               PIMA CO DEQ
HORSE CAMP CYN N/A       53  39  58 NW10G14           *ARAVAIPA CYN
RINCON MTNS    N/A       34  25  68 NW3G16            *NR MANNING CAMP
$$

AZZ509>511-270515-
LOCATION       SKY/WX    TMP DP  RH WIND       PRES   REMARKS
SAFFORD        PTCLDY    50  45  83 W6        29.88R
STRAY HORSE    N/A       34  33  97 W5G12             *
TRAIL CABIN    N/A       38  36  94 W4G13             *N OF GRANVILLE
BLACK HILLS    N/A       49  47  92 CALM              *N OF FT THOMAS
DRY LAKE       N/A       34  34  99 N4G10             *NATANES MTNS
NOON CREEK     N/A       48  41  77 W3                *PINALENO MTNS
COLUMBINE      N/A       28  25  89 W4G14             *PINALENO MTNS
GUTHRIE        N/A       40  38  92 NW19G27           *SW OF GUTHRIE
$$

AZZ502-503-513-270515-
LOCATION       SKY/WX    TMP DP  RH WIND       PRES   REMARKS
NOGALES        PTCLDY    56  27  32 NW3       29.91R
SELLS          N/A       65  19  17 N6G16             *
SASABE         N/A       60  23  24 CALM              *ALTAR VLY
HOPKINS        N/A       42  20  41 W11G21            *SANTA RITA MTNS
CARR CYN       N/A       47  28  48 W2                *W OF HEREFORD
$$

AZZ507-508-512-270515-
LOCATION       SKY/WX    TMP DP  RH WIND       PRES   REMARKS
SIERRA VISTA   CLEAR     50  26  40 W12       29.94R
DOUGLAS        CLEAR     47  29  49 NW9       29.92R
EMPIRE MTNS    N/A       49  26  40 W4G13             *LAS CIENEGAS NCA
MULESHOE RANCH N/A       53  36  52 N7G14             *PRESERVE
HEADQUARTERS   N/A       47  33  57 CALM              *CHIRICAHUA MTNS
$$

.............................NOTES.............................
THIS IS AN AUTOMATED COLLECTIVE WITH MINIMAL QUALITY CONTROL.
PIMA CO DEQ SITES HAVE NONSTANDARD WIND SENSOR HEIGHTS.
PIMA CO DEQ SITES DO NOT REPORT WIND GUSTS.
* INDICATES WIND SENSORS LOCATED AT 20 FEET INSTEAD OF 33 FEET.
..............................KEY..............................
SKY/WX - SKY CONDITION/WEATHER
TMP    - TEMPERATURE IN FAHRENHEIT
DP     - DEWPOINT IN FAHRENHEIT
RH     - RELATIVE HUMIDITY IN PERCENT
WIND   - DIRECTION AND SPEED IN MILES PER HOUR (MPH)
VRB    - VARIABLE WIND DIRECTION
PRES   - MEAN SEA LEVEL PRESSURE IN INCHES OF MERCURY
         F - FALLING PRESSURE   R - RISING PRESSURE
         S - STEADY PRESSURE
VSB    - VISIBILITY IN MILES
HX     - HEAT INDEX IN FAHRENHEIT
WCI    - WIND CHILL INDEX IN FAHRENHEIT
N/A    - NOT AVAILABLE
AFB    - AIR FORCE BASE
         DAVIS-MONTHAN IS DAVIS-MONTHAN AIR FORCE BASE
CYN    - CANYON
MTNS   - MOUNTAINS
NCA    - NATIONAL CONSERVATION AREA
NR     - NEAR
VLY    - VALLEY
CONTL  - CONTINENTAL
PIMA CO DEQ - PIMA COUNTY DEPT OF ENVIRONMENTAL QUALITY



USA.gov is the U.S. government's official web portal to all federal, state and local government web resources and services.